Tracking 23114 objects as of 14-May-2021
HD Live streaming from Space Station
objects crossing your sky now

ONEWEB-0208

Track ONEWEB-0208 now!
10-day predictions
ONEWEB-0208 is classified as:


NORAD ID: 48243
Int'l Code: 2021-031AK
Perigee: 453.0 km
Apogee: 461.9 km
Inclination: 87.4 °
Period: 93.6 minutes
Semi major axis: 6828 km
RCS: Unknown
Launch date: April 25, 2021
Source: United Kingdom (UK)
Launch site: VOSTOCHNY COSMODROME (VOSTO)
aabbcc
Your satellite tracking list
Your tracking list is empty




NASA's NSSDC Master Catalog

Two Line Element Set (TLE):
1 48243U 21031AK  21134.16667824 -.01456149  00000-0 -42246-1 0  9990
2 48243  87.4023 306.6725 0006510 177.5282 144.9970 15.38572178  2788
Source of the keplerian elements: AFSPC